Atoka, OK

4:53 AM CST on December 10, 2019 (GMT -0600)
Atoka Municipal

Weather History for KAQR - June, 2019

Change the Weather History Date:

Saturday, June 8, 2019

  Actual Average (WUND) Record (WUND)
Temperature  
Mean Temperature 75 °F -  
Max Temperature 86 °F - - (-1)
Min Temperature 64 °F - - (-1)
Cooling Degree Days 10    
Growing Degree Days 25 (Base 50)    
Moisture  
Dew Point 66 °F    
Average Humidity 79    
Maximum Humidity 100    
Minimum Humidity 43    
Precipitation  
Precipitation 0.00 in - - ()
Sea Level Pressure  
Sea Level Pressure 29.84 in    
Wind  
Wind Speed 1 mph (NNE)    
Max Wind Speed 8 mph    
Max Gust Speed -    
Visibility 9 miles    
Events      
Averages and records for this station are not official NWS values.
T = Trace of Precipitation, MM = Missing Value Source: NWS Daily Summary

Daily Weather History Graph

Daily Weather History Graph

Search for Another Location

Airport or City:

Astronomy

Jun. 08, 2019 Rise Set
Actual Time 6:11 AM CDT 8:35 PM CDT
Civil Twilight 5:42 AM CDT 9:04 PM CDT
Nautical Twilight 5:06 AM CDT 9:40 PM CDT
Astronomical Twilight 4:27 AM CDT 10:20 PM CDT
Moon 11:35 AM CDT (6/8) 12:42 AM CDT (6/8)
Length of Visible Light 15h 21m
Length of Day
14h 23m
Waxing Crescent, 33% of the Moon is Illuminated
Jun 8
Waxing Crescent
Jun 10
First Quarter
Jun 17
Full
Jun 25
Last Quarter
Jul 2
New

Hourly Weather History & Observations

Time (CDT) Temp. Heat Index Dew Point Humidity Pressure Visibility Wind Dir Wind Speed Gust Speed Precip Events Conditions
12:15 AM 68.0 °F - 68.0 °F 100% 29.80 in 10.0 mi Calm Calm - N/A   Clear
12:35 AM 68.0 °F - 68.0 °F 100% 29.80 in 10.0 mi Calm Calm - N/A   Clear
12:55 AM 68.0 °F - 68.0 °F 100% 29.80 in 10.0 mi Calm Calm - N/A   Clear
1:15 AM 68.0 °F - 68.0 °F 100% 29.79 in 10.0 mi NNW 3.5 mph - N/A   Clear
1:35 AM 68.0 °F - 68.0 °F 100% 29.79 in 10.0 mi North 4.6 mph - N/A   Clear
1:55 AM 68.0 °F - 68.0 °F 100% 29.79 in 10.0 mi Calm Calm - N/A   Clear
2:15 AM 66.2 °F - 66.2 °F 100% 29.79 in 10.0 mi NNW 3.5 mph - N/A   Clear
2:35 AM 66.2 °F - 66.2 °F 100% 29.79 in 10.0 mi Calm Calm - N/A   Clear
2:55 AM 66.2 °F - 66.2 °F 100% 29.80 in 10.0 mi Calm Calm - N/A   Clear
3:15 AM 66.2 °F - 66.2 °F 100% 29.81 in 7.0 mi Calm Calm - N/A   Clear
3:35 AM 66.2 °F - 66.2 °F 100% 29.81 in 7.0 mi Calm Calm - N/A   Clear
3:55 AM 64.4 °F - 64.4 °F 100% 29.81 in 5.0 mi Calm Calm - N/A   Clear
4:10 AM 64.4 °F - 64.4 °F 100% 29.81 in 4.0 mi Calm Calm - N/A   Clear
4:35 AM 64.4 °F - 64.4 °F 100% 29.82 in 5.0 mi Calm Calm - N/A   Scattered Clouds
4:55 AM 66.2 °F - 66.2 °F 100% 29.82 in 1.8 mi Calm Calm - N/A   Overcast
5:15 AM 66.2 °F - 66.2 °F 100% 29.83 in 1.2 mi North 4.6 mph - N/A   Overcast
5:35 AM 68.0 °F - 68.0 °F 100% 29.83 in 2.0 mi North 4.6 mph - N/A   Overcast
5:55 AM 66.2 °F - 66.2 °F 100% 29.83 in 5.0 mi Calm Calm - N/A   Overcast
6:15 AM 66.2 °F - 66.2 °F 100% 29.83 in 4.0 mi Calm Calm - N/A   Mostly Cloudy
6:35 AM 66.2 °F - 66.2 °F 100% 29.83 in 2.0 mi NNE 3.5 mph - N/A   Overcast
6:55 AM 68.0 °F - 68.0 °F 100% 29.83 in 1.5 mi Calm Calm - N/A   Overcast
7:15 AM 68.0 °F - 68.0 °F 100% 29.85 in 3.0 mi Calm Calm - N/A   Overcast
7:35 AM 68.0 °F - 68.0 °F 100% 29.85 in 5.0 mi Calm Calm - N/A   Overcast
7:55 AM 68.0 °F - 68.0 °F 100% 29.87 in 7.0 mi Calm Calm - N/A   Mostly Cloudy
8:15 AM 69.8 °F - 69.8 °F 100% 29.87 in 10.0 mi NE 3.5 mph - N/A   Scattered Clouds
8:35 AM 69.8 °F - 69.8 °F 100% 29.88 in 10.0 mi NNW 3.5 mph - N/A   Scattered Clouds
8:55 AM 71.6 °F - 69.8 °F 94% 29.88 in 10.0 mi North 4.6 mph - N/A   Scattered Clouds
9:15 AM 71.6 °F - 69.8 °F 94% 29.89 in 10.0 mi Calm Calm - N/A   Scattered Clouds
9:35 AM 73.4 °F - 69.8 °F 88% 29.90 in 10.0 mi Calm Calm - N/A   Scattered Clouds
9:55 AM 73.4 °F - 69.8 °F 88% 29.90 in 10.0 mi Calm Calm - N/A   Scattered Clouds
10:15 AM 77.0 °F - 68.0 °F 74% 29.89 in 10.0 mi Calm Calm - N/A   Scattered Clouds
10:35 AM 77.0 °F - 66.2 °F 69% 29.88 in 10.0 mi North 3.5 mph - N/A   Scattered Clouds
10:55 AM 77.0 °F - 68.0 °F 74% 29.88 in 10.0 mi Calm Calm - N/A   Scattered Clouds
11:15 AM 78.8 °F - 64.4 °F 61% 29.87 in 10.0 mi NE 3.5 mph - N/A   Scattered Clouds
11:35 AM 78.8 °F - 64.4 °F 61% 29.88 in 10.0 mi NE 5.8 mph - N/A   Clear
11:55 AM 78.8 °F - 64.4 °F 61% 29.88 in 10.0 mi Calm Calm - N/A   Clear
12:15 PM 80.6 °F 82.7 °F 66.2 °F 61% 29.88 in 10.0 mi NNE 5.8 mph - N/A   Clear
12:35 PM 80.6 °F 82.7 °F 66.2 °F 61% 29.87 in 10.0 mi North 3.5 mph - N/A   Clear
12:55 PM 80.6 °F 82.3 °F 64.4 °F 58% 29.87 in 10.0 mi East 4.6 mph - N/A   Clear
1:15 PM 82.4 °F 83.9 °F 64.4 °F 54% 29.87 in 10.0 mi Calm Calm - N/A   Clear
1:35 PM 82.4 °F 83.9 °F 64.4 °F 54% 29.87 in 10.0 mi ENE 3.5 mph - N/A   Clear
1:55 PM 82.4 °F 83.9 °F 64.4 °F 54% 29.86 in 10.0 mi ENE 4.6 mph - N/A   Clear
2:15 PM 84.2 °F 85.0 °F 62.6 °F 48% 29.86 in 10.0 mi ENE 4.6 mph - N/A   Clear
2:35 PM 84.2 °F 85.0 °F 62.6 °F 48% 29.86 in 10.0 mi NNW 4.6 mph - N/A   Clear
2:55 PM 84.2 °F 85.0 °F 62.6 °F 48% 29.85 in 10.0 mi North 8.1 mph - N/A   Clear
3:15 PM 86.0 °F 86.1 °F 60.8 °F 43% 29.85 in 10.0 mi ENE 3.5 mph - N/A   Clear
3:35 PM 86.0 °F 86.6 °F 62.6 °F 45% 29.85 in 7.0 mi North 5.8 mph - N/A   Clear
3:55 PM 86.0 °F 86.6 °F 62.6 °F 45% 29.84 in 10.0 mi NE 3.5 mph - N/A   Clear
4:15 PM 86.0 °F 86.1 °F 60.8 °F 43% 29.83 in 10.0 mi Calm Calm - N/A   Clear
4:35 PM 86.0 °F 86.1 °F 60.8 °F 43% 29.83 in 10.0 mi NE 3.5 mph - N/A   Clear
4:55 PM 86.0 °F 86.6 °F 62.6 °F 45% 29.83 in 10.0 mi NNE 3.5 mph - N/A   Clear
5:15 PM 86.0 °F 86.6 °F 62.6 °F 45% 29.83 in 10.0 mi NNE 3.5 mph - N/A   Clear
5:35 PM 86.0 °F 86.6 °F 62.6 °F 45% 29.83 in 10.0 mi NNE 3.5 mph - N/A   Clear
5:55 PM 86.0 °F 86.6 °F 62.6 °F 45% 29.82 in 10.0 mi NNE 3.5 mph - N/A   Clear
6:15 PM 86.0 °F 86.6 °F 62.6 °F 45% 29.82 in 10.0 mi NNE 3.5 mph - N/A   Clear
6:35 PM 86.0 °F 86.1 °F 60.8 °F 43% 29.82 in 10.0 mi Calm Calm - N/A   Clear
6:55 PM 84.2 °F 85.0 °F 62.6 °F 48% 29.81 in 10.0 mi Calm Calm - N/A   Clear
7:15 PM 84.2 °F 85.6 °F 64.4 °F 51% 29.81 in 10.0 mi Calm Calm - N/A   Clear
7:35 PM 82.4 °F 83.9 °F 64.4 °F 54% 29.82 in 10.0 mi Calm Calm - N/A   Clear
7:55 PM 82.4 °F 85.4 °F 68.0 °F 62% 29.82 in 10.0 mi Calm Calm - N/A   Clear
8:15 PM 78.8 °F - 68.0 °F 69% 29.82 in 10.0 mi Calm Calm - N/A   Clear
8:30 PM 77.0 °F - 68.0 °F 74% 29.82 in 10.0 mi Calm Calm - N/A   Clear
8:55 PM 73.4 °F - 68.0 °F 83% 29.82 in 10.0 mi Calm Calm - N/A   Clear
9:15 PM 73.4 °F - 69.8 °F 88% 29.83 in 10.0 mi Calm Calm - N/A   Clear
9:35 PM 71.6 °F - 71.6 °F 100% 29.83 in 10.0 mi Calm Calm - N/A   Clear
9:55 PM 71.6 °F - 71.6 °F 100% 29.84 in 10.0 mi Calm Calm - N/A   Clear
10:15 PM 71.6 °F - 71.6 °F 100% 29.85 in 10.0 mi Calm Calm - N/A   Clear
10:35 PM 69.8 °F - 69.8 °F 100% 29.85 in 7.0 mi Calm Calm - N/A   Clear
10:55 PM 69.8 °F - 69.8 °F 100% 29.86 in 7.0 mi Calm Calm - N/A   Clear
11:15 PM 69.8 °F - 69.8 °F 100% 29.86 in 7.0 mi Calm Calm - N/A   Clear
11:35 PM 69.8 °F - 69.8 °F 100% 29.87 in 10.0 mi Calm Calm - N/A   Clear
11:55 PM 69.8 °F - 69.8 °F 100% 29.87 in 10.0 mi Calm Calm - N/A   Clear